Wind_Speed
20 26 27 30 32 34 39 40 38 35 36 35 35 31 26 25 24 26 27 25 21 21 21 24 28 29 32 33 34 36 37 35 34 34 35 32 32 31 31 31 33 30 31
22 22 28 27 33 37 37 37 41 42 37 38 36 31 27 27 26 26 29 29 25 24 23 24 25 27 29 31 31 32 33 33 32 33 32 36 34 35 33 33 38 38 32
21 22 22 24 26 27 22 23 26 30 37 40 37 32 31 29 28 27 30 31 29 27 25 26 26 26 26 27 28 28 30 29 28 31 32 35 36 35 33 31 30 31 38
22 21 21 23 23 22 19 21 22 21 37 39 35 34 32 30 28 26 28 31 31 29 29 29 27 27 25 25 24 26 28 30 32 33 34 33 36 34 35 32 31 28 29
20 21 21 20 20 20 20 19 18 22 29 34 35 34 34 33 29 27 29 31 32 32 33 31 28 29 28 27 28 28 29 30 34 37 37 39 39 41 39 35 35 33 35
18 20 20 19 19 20 20 18 22 23 27 30 31 32 31 30 30 29 29 29 31 34 35 32 32 31 32 31 30 32 31 33 31 34 37 38 39 40 43 42 39 37 35
20 23 18 21 23 22 22 22 23 24 25 27 28 29 28 28 29 29 28 29 31 34 35 34 31 30 31 29 30 32 32 30 30 32 34 36 37 38 39 38 36 38 33
23 20 22 23 27 23 22 25 26 26 26 26 27 28 29 29 29 30 28 29 31 32 33 31 28 27 27 28 27 28 28 29 30 33 34 37 40 40 41 40 37 38 39
20 22 25 24 27 28 26 24 25 27 27 27 26 24 22 22 24 26 27 28 28 25 23 24 25 26 27 28 29 30 32 32 32 34 36 36 38 42 42 41 34 38 39
17 18 22 27 27 32 31 28 27 27 27 27 25 23 21 21 21 22 23 22 21 20 21 21 21 22 24 26 27 28 30 31 33 34 35 38 39 39 40 38 38 39 40
18 22 23 28 30 32 32 30 30 31 31 28 24 20 18 18 19 20 21 22 22 23 22 22 23 24 25 26 27 29 30 32 33 33 36 39 39 38 36 37 37 39 36
22 23 24 27 31 34 34 33 34 33 30 26 23 22 22 22 23 25 25 23 22 24 25 25 24 26 28 30 30 31 33 34 33 34 35 35 37 35 35 38 35 37 36
18 25 27 31 35 36 35 36 36 32 29 28 28 26 25 23 21 21 21 22 24 26 27 27 28 28 29 31 32 33 34 34 35 32 33 35 38 41 37 34 37 43 40
27 29 27 29 38 38 39 39 37 35 33 29 26 24 23 22 21 22 23 24 27 28 29 29 30 32 32 33 35 35 35 34 33 31 33 34 35 35 37 34 38 45 36
22 26 31 32 40 42 42 39 37 33 30 28 27 27 27 26 25 25 28 30 31 29 29 32 35 34 37 36 34 33 34 35 33 34 37 35 37 35 36 35 30 29 33
26 25 31 38 42 43 44 42 38 35 34 33 32 32 30 29 30 31 31 31 30 31 33 38 44 45 45 41 37 36 33 34 40 40 41 43 40 40 41 41 31 31 35
35 31 36 41 46 46 45 43 40 40 37 36 35 34 33 32 32 32 31 33 39 45 49 44 43 44 42 40 38 39 39 40 41 44 46 42 40 44 45 40 34 36 39
39 34 39 43 50 50 50 45 42 41 39 39 36 33 28 26 31 40 43 40 35 34 37 41 41 40 39 38 38 40 42 43 46 47 48 42 42 42 39 40 44 47 43
36 36 40 46 53 53 50 50 47 42 46 41 31 33 40 40 39 37 32 32 36 38 40 41 41 43 41 40 40 41 44 46 47 47 46 48 46 42 38 42 49 46 39
36 38 42 47 50 45 44 46 45 49 43 44 43 36 35 35 30 31 34 36 40 43 44 42 40 38 38 38 40 44 47 44 43 45 43 48 52 50 39 38 45 46 41
37 40 43 47 50 53 52 51 44 40 41 38 34 32 29 29 30 34 37 38 39 40 39 39 38 39 39 41 41 41 42 42 42 44 43 42 44 50 50 39 41 39 36
35 43 49 52 50 50 42 37 33 28 31 30 25 26 28 31 34 35 36 37 38 39 40 39 40 40 40 39 37 37 38 40 43 41 42 44 42 43 44 38 40 37 36
36 46 49 51 51 43 41 41 32 26 23 23 26 30 31 32 33 35 37 38 40 40 40 40 39 37 36 35 34 34 35 37 39 41 41 41 42 38 34 32 38 41 43
38 46 46 45 42 35 32 27 23 21 24 26 28 31 32 33 35 36 37 38 38 37 35 36 36 37 36 37 36 33 34 37 41 40 40 40 37 39 32 34 29 39 42
37 37 34 31 26 29 26 21 22 24 26 28 30 33 35 36 36 36 36 35 34 35 36 37 39 40 39 39 39 39 37 38 40 41 41 39 34 33 30 32 27 38 44
37 35 27 24 23 20 19 22 24 27 29 31 33 36 37 37 37 36 34 34 35 38 39 38 40 40 40 41 42 41 38 39 40 42 41 37 37 34 34 32 22 40 44
Wind_Direction
258 247 256 266 275 272 270 268 262 248 235 232 225 225 226 228 233 230 227 227 226 229 235 241 244 248 253 256 256 259 261 263 267 270 274 277 278 283 274 282 281 278 287
251 248 267 281 282 283 276 268 256 248 231 226 221 224 224 227 233 232 225 226 227 233 239 243 248 253 256 259 259 260 262 264 266 270 274 275 277 273 273 283 289 272 282
249 265 279 292 301 297 286 265 255 247 219 220 221 225 224 225 228 231 226 226 227 233 241 245 251 254 254 256 258 258 260 264 265 266 267 272 273 279 283 287 276 271 277
255 273 282 304 302 294 282 268 251 233 214 216 222 228 227 226 230 234 228 226 227 234 241 249 253 251 255 261 262 260 259 259 263 268 271 275 275 281 278 277 280 280 268
264 273 294 303 293 280 268 262 232 210 207 214 222 225 222 223 226 226 224 224 229 234 244 250 250 252 254 258 262 262 265 273 275 273 272 271 272 273 277 276 280 282 276
274 278 290 290 266 260 255 232 207 210 212 216 220 221 222 225 228 232 231 234 237 240 248 253 254 256 258 259 267 266 275 279 278 277 275 275 278 272 273 278 273 275 270
279 285 276 273 246 243 241 225 216 214 213 216 219 221 224 228 227 230 232 242 243 245 251 256 261 259 267 273 274 272 276 277 278 277 279 276 271 272 274 267 270 273 268
270 269 276 275 242 238 229 223 221 221 219 218 219 223 225 226 228 232 237 239 243 247 255 258 262 269 272 271 272 272 275 274 277 275 275 278 274 270 272 267 269 260 270
261 271 273 266 254 239 226 222 224 222 220 218 213 210 213 220 226 230 232 238 241 247 251 260 267 272 277 278 279 280 280 280 283 283 283 280 280 279 274 269 258 262 269
255 271 271 266 259 238 232 227 223 217 211 206 207 213 223 228 228 231 234 238 245 252 259 266 271 275 278 279 280 282 284 284 282 281 277 276 278 276 275 267 275 268 273
268 269 267 271 254 237 233 227 213 208 207 211 218 223 222 221 224 230 237 242 247 251 265 275 278 278 278 282 286 287 288 289 288 285 282 277 273 272 275 268 269 265 262
269 267 264 262 253 236 227 220 211 209 213 220 224 227 230 235 239 239 241 247 257 270 279 283 284 287 290 291 296 295 293 290 288 284 283 278 277 273 270 271 269 270 264
270 268 265 265 242 230 223 216 213 218 224 231 236 240 242 246 251 253 255 261 271 274 281 290 291 290 289 292 296 295 293 291 290 284 285 280 271 271 274 267 272 267 275
280 261 261 259 236 225 221 218 220 225 230 237 245 251 255 258 259 260 265 274 277 281 286 290 293 293 297 302 298 295 291 286 288 287 286 284 281 273 271 273 284 280 266
279 262 257 249 234 225 222 224 226 231 239 244 248 249 252 261 264 267 270 276 279 281 289 297 300 298 301 302 297 292 290 283 285 284 284 285 279 266 265 278 282 287 257
277 256 250 243 232 225 224 224 227 234 240 244 249 249 250 254 257 261 262 269 278 292 297 299 301 303 303 300 292 289 286 275 280 278 276 272 273 270 270 280 270 261 252
275 257 248 245 233 228 224 226 232 232 236 237 238 241 248 252 254 260 265 278 287 291 291 295 294 293 294 291 287 282 277 273 272 271 269 268 272 270 273 281 265 258 245
267 247 247 247 232 230 231 234 234 236 239 237 243 246 253 266 277 281 283 287 289 289 290 291 293 291 290 287 283 278 276 276 272 266 265 261 264 269 279 271 257 248 245
253 243 240 242 233 226 227 232 239 242 247 248 255 268 272 277 279 281 283 285 289 292 294 292 291 289 286 283 281 279 276 274 273 272 265 265 263 266 268 267 257 244 239
246 242 241 236 228 225 231 235 238 244 245 251 266 273 272 273 274 280 289 290 291 288 284 283 282 283 285 285 283 279 275 272 273 274 274 271 266 278 277 277 257 246 229
240 239 233 227 230 236 238 237 237 249 269 276 270 264 269 279 285 286 284 283 282 282 283 284 284 284 284 282 281 282 280 274 271 270 275 279 277 277 281 282 255 236 228
236 233 228 226 228 230 236 255 274 268 257 259 267 275 279 281 280 281 282 284 285 285 284 283 283 283 284 284 282 283 280 276 275 274 275 280 285 280 279 280 262 238 222
238 227 225 226 237 246 268 273 267 258 261 268 275 279 279 281 284 285 286 285 284 283 282 282 284 285 284 283 285 284 284 280 275 275 280 282 287 279 282 269 270 240 224
234 229 239 246 253 260 257 251 255 266 275 278 279 280 281 282 284 285 286 286 285 284 285 285 285 286 286 289 291 288 280 278 278 275 277 277 277 279 279 263 261 247 222
233 239 241 252 251 253 251 263 272 275 277 279 280 281 283 285 286 287 285 284 285 284 284 286 287 287 288 288 288 287 280 271 271 271 271 272 271 274 272 252 251 244 216
237 237 237 239 244 258 268 274 279 282 284 285 284 283 283 283 284 284 283 281 283 285 287 287 289 289 289 287 287 286 280 268 264 266 267 266 264 258 263 257 250 240 217
Height
3140 3139 3138 3138 3139 3136 3134 3132 3132 3135 3137 3139 3141 3144 3146 3149 3150 3151 3153 3154 3154 3155 3157 3159 3161 3161 3161 3162 3162 3161 3162 3163 3164 3163 3162 3162 3161 3163 3163 3164 3162 3158 3158
3133 3133 3132 3132 3130 3126 3123 3121 3121 3123 3128 3131 3135 3138 3141 3143 3144 3145 3146 3149 3149 3151 3152 3154 3155 3156 3156 3155 3155 3156 3156 3156 3158 3156 3156 3153 3154 3156 3153 3154 3155 3152 3150
3127 3127 3126 3124 3120 3116 3113 3112 3111 3111 3118 3123 3128 3132 3134 3136 3138 3140 3141 3143 3145 3146 3148 3149 3150 3150 3149 3149 3149 3150 3150 3150 3151 3151 3150 3147 3146 3146 3148 3146 3145 3143 3142
3121 3121 3119 3116 3112 3109 3108 3106 3105 3105 3111 3117 3123 3126 3129 3131 3133 3134 3136 3138 3140 3141 3142 3143 3144 3145 3146 3145 3144 3144 3144 3144 3144 3144 3145 3144 3141 3140 3139 3138 3137 3138 3138
3115 3114 3112 3109 3106 3104 3103 3102 3101 3103 3107 3113 3117 3119 3123 3125 3128 3129 3130 3132 3134 3136 3137 3138 3139 3139 3140 3140 3140 3140 3139 3139 3139 3138 3137 3134 3132 3131 3130 3128 3128 3128 3128
3108 3107 3104 3102 3101 3099 3099 3100 3101 3103 3106 3109 3112 3115 3117 3120 3122 3126 3129 3130 3130 3131 3132 3133 3134 3134 3134 3134 3134 3133 3133 3132 3131 3130 3129 3129 3126 3124 3123 3122 3120 3117 3117
3100 3099 3097 3096 3095 3095 3095 3096 3098 3100 3102 3105 3108 3109 3112 3115 3117 3120 3122 3124 3125 3126 3126 3127 3127 3127 3127 3128 3127 3126 3126 3125 3124 3123 3122 3120 3118 3115 3113 3110 3110 3111 3111
3094 3092 3091 3091 3091 3090 3090 3092 3094 3097 3099 3101 3103 3105 3106 3108 3111 3114 3116 3118 3119 3120 3121 3121 3121 3121 3120 3119 3118 3117 3117 3116 3116 3115 3113 3112 3111 3108 3106 3104 3103 3100 3099
3088 3087 3086 3086 3086 3086 3086 3087 3089 3091 3094 3096 3098 3100 3103 3105 3107 3108 3110 3111 3114 3115 3115 3115 3115 3115 3113 3112 3111 3111 3109 3109 3109 3108 3106 3103 3103 3104 3102 3098 3095 3091 3089
3082 3081 3081 3082 3081 3081 3081 3083 3084 3087 3090 3092 3094 3096 3098 3099 3102 3104 3105 3107 3109 3109 3109 3109 3108 3107 3107 3106 3104 3102 3102 3100 3098 3097 3095 3094 3093 3090 3090 3094 3093 3089 3083
3076 3075 3073 3074 3075 3075 3075 3079 3081 3082 3085 3087 3090 3091 3092 3094 3095 3098 3099 3100 3102 3102 3102 3102 3101 3100 3098 3097 3095 3094 3091 3089 3088 3085 3085 3084 3081 3080 3078 3079 3079 3078 3075
3071 3069 3067 3066 3068 3069 3069 3073 3076 3078 3080 3082 3083 3085 3087 3088 3090 3091 3092 3093 3093 3095 3095 3094 3093 3091 3090 3089 3087 3084 3082 3079 3075 3074 3071 3071 3074 3072 3069 3065 3067 3068 3065
3063 3063 3060 3059 3061 3063 3065 3068 3071 3073 3075 3076 3077 3078 3078 3079 3082 3083 3085 3085 3086 3085 3085 3084 3083 3081 3078 3077 3075 3073 3071 3068 3066 3061 3061 3059 3055 3057 3057 3057 3054 3052 3052
3054 3055 3054 3052 3055 3058 3060 3062 3065 3066 3067 3069 3070 3071 3072 3073 3074 3075 3075 3076 3076 3076 3075 3074 3073 3071 3068 3066 3064 3061 3058 3057 3055 3053 3051 3048 3049 3047 3046 3045 3045 3043 3040
3044 3045 3046 3046 3049 3052 3054 3056 3059 3060 3062 3062 3062 3064 3064 3065 3066 3066 3066 3066 3067 3066 3065 3064 3063 3061 3060 3058 3054 3053 3050 3046 3044 3043 3042 3042 3041 3036 3036 3036 3035 3032 3032
3036 3037 3039 3039 3041 3044 3047 3048 3050 3052 3053 3053 3054 3056 3056 3057 3057 3056 3056 3056 3057 3055 3054 3053 3052 3050 3048 3048 3046 3043 3041 3039 3038 3034 3033 3032 3028 3028 3025 3025 3026 3025 3022
3027 3028 3029 3031 3034 3037 3039 3040 3042 3043 3043 3044 3044 3043 3045 3045 3046 3046 3046 3045 3044 3044 3043 3042 3041 3039 3038 3037 3034 3032 3029 3028 3026 3024 3022 3019 3017 3017 3015 3013 3016 3014 3014
3016 3016 3018 3022 3026 3028 3029 3032 3033 3033 3034 3035 3034 3035 3035 3036 3036 3036 3035 3034 3033 3032 3032 3031 3030 3028 3026 3024 3021 3018 3015 3013 3012 3010 3007 3005 3004 3004 3001 3004 3002 3003 3002
3003 3005 3007 3010 3013 3016 3018 3021 3023 3024 3026 3026 3026 3027 3027 3026 3026 3025 3024 3024 3023 3022 3020 3019 3018 3016 3015 3012 3009 3004 3001 2999 2997 2998 2998 2994 2991 2989 2990 2990 2991 2989 2990
2992 2995 2997 3001 3004 3006 3008 3010 3011 3013 3013 3015 3016 3016 3016 3016 3015 3015 3014 3012 3011 3011 3009 3009 3008 3005 3002 2998 2996 2992 2989 2986 2985 2983 2982 2983 2979 2980 2978 2978 2979 2980 2981
2982 2986 2990 2993 2994 2997 2998 2999 3000 3002 3004 3005 3006 3006 3006 3006 3005 3004 3002 3000 3000 2999 2996 2994 2994 2992 2989 2987 2983 2979 2975 2973 2971 2970 2970 2969 2966 2966 2966 2966 2968 2968 2974
2974 2979 2981 2983 2984 2985 2989 2990 2991 2992 2993 2994 2996 2997 2997 2996 2995 2994 2993 2990 2986 2985 2983 2981 2980 2979 2977 2973 2970 2967 2964 2963 2962 2961 2959 2956 2954 2954 2955 2955 2960 2961 2965
2969 2971 2974 2975 2977 2980 2980 2982 2982 2983 2986 2987 2988 2989 2988 2986 2984 2982 2980 2977 2974 2971 2970 2968 2967 2966 2964 2962 2959 2955 2952 2950 2949 2949 2947 2945 2943 2943 2945 2946 2950 2953 2957
2963 2966 2968 2970 2971 2972 2974 2974 2975 2977 2977 2978 2978 2979 2978 2977 2974 2971 2969 2966 2964 2961 2958 2956 2955 2954 2952 2949 2948 2945 2940 2939 2937 2938 2935 2934 2934 2932 2935 2935 2939 2944 2949
2958 2959 2958 2961 2962 2964 2966 2968 2969 2970 2970 2969 2969 2969 2968 2966 2963 2961 2958 2955 2953 2951 2947 2945 2943 2940 2938 2936 2933 2933 2930 2928 2926 2925 2924 2924 2925 2924 2925 2925 2927 2934 2940
2951 2950 2951 2954 2956 2958 2960 2961 2961 2961 2961 2960 2958 2958 2956 2953 2950 2949 2946 2944 2942 2941 2937 2933 2930 2929 2925 2921 2918 2918 2916 2915 2914 2912 2912 2913 2914 2914 2915 2917 2916 2924 2930